World > North America > United States > North Dakota

Sheyenne, North Dakota Regional Weather

Lat: 47.83N, Lon: 99.12W
Wx Zone: NDZ024Web Search
Sheyenne Weather Warning NWS WEATHER ALERT FOR THE SHEYENNE, ND AREA - Issued: 637 AM CDT Mon Apr 12 2021 Sheyenne Weather Warning  

Ads allow us to feed your daily addiction for the world's greatest weather information. We're determined to offer quality sponsors, in the least annoying way possible.

Feedback


°F Click to change Sheyenne hourly weather to Imperial units.Click to change Sheyenne hourly weather to Metric units. °C
Sheyenne Weather Map
UTC Time: 4/12/2021, 16:01
Your Time:

Sheyenne, ND Regional Weather

Expires:202104121600;;440727
ASUS43 KBIS 121510
RWRND 

NORTH DAKOTA REGIONAL WEATHER ROUNDUP
NATIONAL WEATHER SERVICE BISMARCK ND
1000 AM CDT MON APR 12 2021

NOTE: "FAIR" INDICATES FEW OR NO CLOUDS BELOW 12,000 FEET WITH NO
SIGNIFICANT WEATHER AND/OR OBSTRUCTIONS TO VISIBILITY.



NDZ004>008-012>016-024-026-027-054-121600-
NORTHEAST NORTH DAKOTA
  
CITY           SKY/WX    TMP DP  RH WIND       PRES   REMARKS
GRAND FORKS    LGT SNOW  32  30  92 NW15      29.75R VSB 3/4          
GRND FRKS AFB  LGT SNOW  33  33 100 N17G28    29.76R FOG              
DEVILS LAKE    LGT SNOW  30  27  88 N26       29.83R FOG     WCI  16  
$$
 

SKY/WX - Weather  TMP - Temperature  DP - Dew Point  RH - Relative Humidity
WIND - Wind Direction/Speed PRES - Barometric Pressure VSB - Visibility
WCI - Wind Chill Index E13G22 Wind - East Wind 13 mph/Gusts of 22 mph